Location: D�derode
(51.8092°N, 10.1065°E)
Time: 06:31:32
(UTC+00:00)

MOS 1-B - Pass Details

Date: 01 December 2020
Orbit: 905 x 914 km, 99.4° (Epoch: 23 January)

Event Time Altitude Azimuth Distance (km) Brightness Sun altitude
Rises 16:07:15 0° 162° (SSE) 3,532 7.5 -8.1°
Reaches altitude 10° 16:09:39 10° 163° (SSE) 2,595 6.8 -8.5°
Maximum altitude 16:15:27 87° 251° (WSW) 923 4.5 -9.3°
Drops below altitude 10° 16:21:19 10° 343° (NNW) 2,617 6.7 -10.1°
Sets 16:23:45 0° 344° (NNW) 3,563 7.4 -10.5°
